Location: Remedello Sotto
(45.2500°N, 10.3667°E)
Time: 22:26:11
(UTC+00:00)

CZ-4B DEB - Pass Details

Date: 04 August 2024
Orbit: 835 x 857 km, 99.0° (Epoch: 16 September)

Event Time Altitude Azimuth Distance (km) Brightness Sun altitude
Rises 19:16:27 0° 186° (S) 3,402 7.1 -6.2°
Reaches altitude 10° 19:18:58 10° 194° (SSW) 2,474 6.5 -6.6°
Maximum altitude 19:24:04 39° 262° (W) 1,263 5.7 -7.4°
Drops below altitude 10° 19:29:15 10° 331° (NNW) 2,501 7.8 -8.1°
Sets 19:31:48 0° 339° (NNW) 3,443 8.4 -8.5°
